Location: Moscow
(55.7500°N, 37.5830°E)
Time: 05:03:33
(UTC+03:00)

Transit 4A - Pass Details

Date: 04 December 2021
Orbit: 863 x 981 km, 66.8° (Epoch: 26 January)

Event Time Altitude Azimuth Distance (km) Brightness Sun altitude
Exits shadow 06:21:23 11° 231° (SW) 2,661 9.9 -18.0°
Drops below altitude 10° 06:21:40 10° 229° (SW) 2,712 10.0 -18.0°
Sets 06:25:35 0° 205° (SSW) 3,666 10.9 -17.5°
